Theta_e
319 319 320 320 320 319 319 319 319 318 317 316 315 314 314 313 312 312 311 311 311 311 310 309 309 308 308 308 308 307 307 306 305 305 304 304 304 304 304 304 303 303 303 303 303 303 303 303 303 303 303 303 303 303 303 304 304 305 305 306 306 306 306 306 306 306 305 305 304 304 303 303 302 301 300 300 300 300 300 300 301 301 301 302 302 302
319 320 320 320 319 319 319 319 318 317 315 315 314 313 312 312 312 311 311 311 311 310 309 308 308 308 308 308 307 307 306 305 305 304 304 304 304 304 303 303 303 302 302 302 302 302 302 302 302 302 302 302 302 302 303 303 303 303 304 304 304 305 305 305 305 304 304 303 302 302 301 300 299 298 298 297 297 297 297 298 298 299 299 299 300 300
319 319 319 319 319 319 318 318 317 316 314 313 312 312 311 311 312 311 311 311 310 309 308 308 308 308 307 307 307 306 306 305 304 304 303 303 303 303 303 303 302 302 302 302 302 302 302 302 302 302 302 302 302 302 302 302 302 302 302 303 303 303 303 303 302 302 301 301 300 299 298 297 296 295 295 294 294 294 294 295 295 296 296 296 297 298
319 319 319 318 318 318 317 317 316 314 313 312 311 311 311 312 312 312 311 310 309 309 308 308 308 307 307 307 306 306 305 305 304 304 303 303 303 303 302 302 302 302 301 301 301 301 301 301 301 301 301 301 301 301 301 301 301 301 301 301 301 301 301 300 299 299 298 297 296 296 295 294 293 293 292 292 291 292 292 292 293 293 293 294 294 295
319 318 318 318 318 317 316 316 315 313 312 311 311 311 311 312 312 311 310 310 309 308 308 308 307 307 307 306 306 305 304 304 304 303 303 303 303 302 302 302 302 302 301 301 301 300 300 300 299 299 299 299 299 299 299 299 299 299 299 299 298 298 297 297 296 295 295 294 293 293 292 291 291 291 290 290 290 290 290 290 291 291 291 291 292 293
318 317 317 317 316 316 315 315 314 313 312 312 311 311 311 311 311 310 310 309 309 308 308 308 307 307 306 306 305 304 304 304 303 303 303 303 302 302 302 302 302 301 301 300 300 299 298 298 297 297 297 296 296 296 296 296 296 296 296 295 295 294 294 293 293 292 292 291 291 290 290 290 290 290 290 290 289 289 289 289 289 290 290 290 290 291
316 316 315 315 315 314 314 314 313 313 312 312 312 311 311 311 310 310 309 309 308 308 308 307 307 306 306 305 304 304 304 303 303 303 303 302 302 302 302 301 301 300 300 299 298 297 296 295 294 294 294 293 293 293 293 293 293 293 293 292 292 291 291 291 291 290 290 290 290 290 290 290 290 289 289 289 289 289 289 289 289 289 289 289 290 290
314 314 314 313 313 313 313 313 313 313 312 312 311 311 311 310 309 309 309 308 308 308 307 307 306 306 305 304 304 303 303 303 303 302 302 302 302 302 301 301 300 299 298 296 295 294 293 292 292 291 291 291 291 291 291 290 290 290 290 290 290 290 290 290 290 290 290 290 290 290 290 290 289 289 289 289 289 289 289 289 289 289 289 289 289 289
312 312 312 312 312 312 313 312 312 312 312 312 311 311 310 310 309 309 308 308 307 307 307 306 306 305 304 304 303 303 303 302 302 302 302 302 301 301 300 299 298 297 295 294 293 292 291 291 290 290 290 290 289 289 289 289 289 289 289 290 290 290 290 290 290 290 290 290 290 290 290 289 289 289 289 289 289 289 289 289 289 289 289 289 289 289
311 311 311 311 311 311 312 312 312 311 312 311 310 310 310 309 309 308 308 308 307 307 306 306 305 304 304 303 303 302 302 302 302 301 301 301 300 299 298 297 295 294 293 292 291 290 290 289 289 289 289 289 289 289 289 289 289 289 289 289 290 290 290 290 290 290 289 289 290 289 289 289 289 289 289 289 289 289 289 289 289 289 288 288 288 289
309 310 310 310 310 310 311 311 311 311 311 310 310 309 308 308 308 308 307 307 307 306 305 305 304 303 303 303 302 302 301 301 301 300 300 299 298 297 296 294 293 292 291 290 290 289 289 289 289 289 289 289 289 289 289 289 289 289 289 289 290 290 290 290 289 289 289 289 289 289 289 289 289 289 289 289 289 289 289 289 289 289 288 288 288 288
308 308 309 310 310 309 310 310 310 310 310 309 309 308 308 308 307 307 307 307 306 305 305 304 303 303 302 302 302 301 301 300 299 299 298 297 295 294 293 292 291 290 290 289 289 289 289 289 289 289 289 289 289 289 289 289 289 289 289 289 289 289 289 289 289 289 289 289 289 289 289 289 289 289 289 289 289 289 289 289 289 289 288 288 288 288
307 307 308 308 309 309 309 309 309 309 309 309 309 308 308 308 307 306 306 306 305 304 304 303 303 302 302 301 301 300 300 299 298 297 296 295 293 292 291 290 290 289 289 289 288 288 288 288 288 288 289 289 289 289 289 289 289 289 289 289 289 289 289 289 289 289 289 289 289 289 289 289 289 289 289 289 289 289 289 289 289 289 288 288 288 288
306 306 306 306 307 308 308 308 308 308 308 308 308 308 307 307 306 305 305 305 304 303 303 303 302 302 301 301 300 299 299 298 297 295 294 293 292 291 290 290 289 289 289 288 288 288 288 288 288 288 289 289 289 289 289 289 289 289 289 289 289 289 289 289 289 289 289 289 289 289 289 289 289 289 289 289 289 289 289 289 289 288 288 288 288 288
306 305 305 305 306 306 307 307 307 307 307 307 307 306 306 305 305 305 304 304 303 302 302 302 302 301 301 300 299 298 297 296 295 293 292 291 290 290 289 289 289 289 288 288 288 288 288 288 288 289 289 289 289 288 288 288 289 289 289 289 289 289 289 289 289 289 289 289 289 289 289 289 289 289 289 289 289 289 289 289 288 288 288 288 288 288
305 305 304 304 305 305 306 306 306 306 306 306 305 305 305 305 304 304 303 303 302 302 302 301 301 300 300 299 298 297 296 294 293 292 291 290 290 289 289 289 289 289 288 288 288 288 288 289 289 289 289 289 288 288 288 288 288 289 289 289 289 289 289 289 289 289 289 289 289 289 289 289 289 289 289 289 289 289 289 288 288 288 288 288 288 288
304 304 304 304 304 305 305 305 305 305 305 304 304 304 304 304 303 303 303 302 301 301 301 301 300 299 298 297 296 295 293 292 292 291 290 290 290 290 289 289 289 289 288 288 288 289 289 289 289 289 289 288 288 288 288 288 288 288 289 289 289 289 289 289 289 289 289 289 289 289 289 289 289 289 289 289 289 289 289 289 289 288 288 288 288 288
303 304 304 304 304 305 305 305 304 304 304 303 303 303 303 303 302 302 302 301 301 301 300 300 299 298 297 296 294 292 292 291 291 290 290 290 290 289 289 289 289 288 288 288 288 289 289 289 289 288 288 288 288 288 288 288 288 288 289 289 289 289 289 289 289 289 289 289 289 289 289 289 289 289 289 289 289 289 289 289 289 289 289 289 289 289
304 304 305 305 305 305 304 304 304 303 303 303 303 302 302 302 302 302 301 301 300 300 299 299 297 296 295 294 292 291 290 290 290 290 289 289 289 289 289 289 288 288 288 288 288 289 289 288 288 288 288 288 288 288 288 288 288 288 288 289 289 289 289 289 289 289 289 289 289 289 289 289 289 289 289 289 289 289 289 289 289 289 289 289 289 289
304 304 305 305 304 304 303 303 303 302 302 302 302 302 302 301 301 301 300 300 299 299 298 297 295 294 292 291 291 290 290 289 289 289 289 289 288 288 288 288 288 288 288 288 288 288 288 288 288 288 288 288 288 288 288 288 288 288 288 289 289 289 289 289 289 289 289 289 289 289 289 289 289 289 289 289 289 289 289 289 289 289 289 289 289 289
304 304 304 303 303 303 303 302 302 302 302 301 301 301 301 300 300 299 299 298 297 296 295 294 292 291 291 290 289 289 289 289 289 289 288 288 288 287 288 288 288 288 288 288 288 288 288 288 288 288 288 288 288 288 288 288 288 288 288 288 288 289 289 289 289 289 289 289 289 290 290 290 290 289 289 289 289 289 289 289 289 289 289 289 289 289
303 303 303 303 303 302 302 301 301 301 301 300 300 299 299 298 298 297 296 295 294 293 292 291 291 290 289 289 289 288 288 288 288 288 288 287 287 287 287 287 287 287 287 287 288 288 288 288 288 288 288 288 288 288 288 288 288 288 288 288 288 288 289 289 289 289 289 289 290 290 290 290 290 290 290 289 289 289 289 289 289 289 289 289 289 289
302 302 302 302 301 301 301 300 300 300 299 299 298 297 296 295 295 294 293 292 292 291 290 290 289 289 288 288 288 288 288 288 288 287 287 287 287 287 287 287 287 287 287 287 288 288 288 288 288 288 288 288 288 288 288 288 288 288 288 288 288 288 289 289 289 289 289 289 290 290 290 290 290 290 290 290 290 289 289 289 289 289 289 289 289 289
301 301 300 300 299 299 299 298 298 297 296 296 295 294 293 293 292 291 291 290 290 289 289 289 288 288 288 288 288 288 288 288 287 287 287 287 287 287 287 287 287 287 287 287 288 288 288 288 288 288 288 288 288 288 288 288 288 288 288 288 288 288 289 289 289 289 289 289 290 290 290 290 290 290 290 290 290 290 290 289 289 289 289 289 289 289
299 299 298 297 297 296 295 295 294 293 293 292 292 291 291 291 290 290 289 289 289 289 288 288 288 288 288 288 288 288 288 288 287 287 287 287 287 287 287 287 287 287 287 287 288 288 288 288 288 288 288 288 288 288 288 288 288 288 288 288 288 288 288 289 289 289 289 289 290 290 290 290 290 290 290 290 290 290 290 290 289 289 289 289 289 289
296 295 294 294 293 293 292 292 291 291 291 290 290 290 290 289 289 289 289 289 288 288 288 288 288 288 288 288 288 287 288 288 287 287 287 287 287 287 287 287 287 287 287 287 287 287 288 288 288 288 288 288 288 288 288 288 288 288 288 288 288 288 288 289 289 289 289 289 289 290 290 290 290 290 290 290 290 290 290 290 290 289 289 289 289 289
292 292 291 291 291 290 290 290 290 289 289 289 289 289 289 289 289 288 288 288 288 288 288 288 288 287 287 287 287 287 287 288 287 287 287 287 287 287 287 287 287 287 287 287 287 287 287 287 287 287 288 288 288 288 288 288 288 288 288 288 288 288 288 289 289 289 289 289 289 289 289 290 290 290 290 290 290 290 290 290 289 289 290 289 289 289
290 290 289 289 289 289 289 289 289 289 289 289 288 288 288 288 288 288 288 288 288 287 287 287 287 287 287 287 287 287 287 287 287 287 287 287 287 287 287 287 287 287 287 287 287 287 287 287 287 287 288 288 288 288 288 288 288 288 288 288 288 288 288 288 289 289 289 289 289 289 289 289 289 289 289 290 290 289 289 289 289 290 290 290 290 289
289 289 289 288 288 288 288 288 288 288 288 288 288 288 288 288 288 288 287 287 287 287 287 287 287 287 287 287 287 287 287 287 288 288 287 287 287 287 287 287 287 287 287 287 287 287 287 287 287 287 287 288 288 288 288 288 287 287 287 288 288 288 288 288 289 289 289 289 289 289 289 289 289 289 289 289 289 289 289 289 289 290 290 290 290 290
288 288 288 288 288 288 288 288 288 288 288 288 288 288 287 287 287 287 287 288 287 287 287 287 287 287 287 287 287 287 287 288 288 288 288 288 288 288 288 287 287 287 287 287 287 287 287 287 288 288 288 288 288 288 288 288 288 287 287 288 288 288 288 288 288 289 289 289 289 289 289 289 289 289 289 289 289 289 289 289 289 290 290 290 290 290
288 288 288 288 288 288 288 288 288 288 288 288 288 287 287 287 287 287 287 287 287 287 287 287 287 287 287 287 287 287 287 288 288 288 288 288 288 288 288 288 288 287 287 287 287 287 287 288 288 288 288 288 288 288 288 288 287 288 287 287 288 288 288 288 288 288 289 289 289 289 289 289 289 289 289 289 289 289 289 289 290 290 290 290 290 290
288 288 288 288 288 288 288 288 288 287 287 287 287 287 287 287 287 287 287 287 287 287 287 287 287 287 287 287 287 287 287 288 288 289 288 288 288 288 288 288 288 288 288 288 287 287 287 287 288 288 288 288 288 288 288 288 288 288 288 288 288 288 288 288 288 288 288 288 289 289 289 289 289 289 289 289 289 289 290 290 290 290 290 290 290 290
288 288 288 288 288 288 288 287 287 287 287 287 287 287 287 287 287 287 287 287 287 287 287 287 287 287 287 287 287 287 287 288 288 289 289 289 289 289 289 288 288 288 288 288 287 287 287 287 287 287 287 287 287 287 287 287 288 287 288 288 288 288 288 288 288 288 288 288 288 288 289 289 289 289 289 289 289 290 290 290 290 290 290 290 290 290
288 288 288 288 288 288 287 287 287 287 287 287 287 287 287 287 287 287 287 287 287 287 287 287 287 287 287 287 287 287 287 288 288 289 289 289 289 289 289 288 288 288 288 288 287 287 287 287 287 286 286 287 287 287 287 287 287 287 287 288 288 288 288 288 288 288 288 288 288 288 288 289 289 289 289 289 289 289 290 290 290 290 290 290 290 290
288 288 288 288 287 287 287 287 287 287 287 287 287 287 287 287 287 287 287 287 287 287 287 287 287 287 287 287 287 287 287 288 288 289 289 289 289 288 288 288 288 288 288 288 288 287 287 287 287 287 286 286 286 287 287 287 287 287 287 287 287 287 287 287 287 287 288 288 288 288 288 288 289 289 289 289 289 289 290 290 290 290 290 290 290 290
287 287 287 287 287 287 287 287 287 287 287 287 287 287 287 287 287 287 287 287 287 287 287 287 287 287 287 287 287 287 287 288 288 289 288 288 288 288 288 288 288 288 288 288 288 288 287 287 287 287 287 286 286 286 286 287 287 287 287 287 287 287 287 287 287 287 287 287 288 288 288 288 289 289 289 289 289 289 290 290 290 290 290 290 290 290
287 287 287 287 287 287 287 287 287 287 287 287 287 287 287 287 287 287 287 287 287 287 287 287 287 287 287 287 287 288 288 288 288 288 288 288 288 288 288 288 288 288 288 288 288 288 288 288 288 287 287 287 286 286 286 286 286 286 286 286 286 286 286 286 287 287 287 287 287 288 288 288 289 289 289 289 289 289 289 290 290 290 290 290 290 290
287 287 287 287 287 287 287 287 287 287 287 287 287 287 288 288 288 288 288 288 288 288 288 288 288 287 287 287 287 287 288 288 288 288 288 288 288 288 288 288 288 288 287 288 288 288 288 288 288 288 288 287 287 286 286 286 285 285 285 286 286 286 286 286 286 286 287 287 287 288 288 288 288 289 289 289 289 289 289 290 290 290 290 290 290 290
287 287 287 287 287 287 287 287 287 287 287 287 287 288 288 288 288 288 288 288 288 288 288 288 288 288 287 287 287 287 287 287 287 287 287 288 288 288 288 288 287 287 287 287 288 288 288 288 288 288 288 288 287 287 286 286 286 285 285 285 285 285 285 286 286 286 287 287 287 287 288 288 288 289 289 289 289 289 289 289 290 290 290 290 289 289
287 287 287 287 287 287 287 287 287 287 288 288 288 288 288 288 288 288 288 288 288 288 288 288 288 288 287 287 287 287 287 287 287 287 287 287 287 287 287 287 287 287 287 287 288 288 288 288 288 288 288 288 288 287 287 286 286 286 285 285 285 285 285 285 286 286 287 287 287 287 288 288 288 288 289 289 289 289 289 289 290 290 290 289 289 289
287 287 287 287 288 288 288 288 288 288 288 288 288 288 288 288 288 288 288 288 288 288 288 288 288 288 288 287 287 287 287 287 287 287 287 287 287 287 287 287 287 288 288 288 288 288 288 288 288 288 288 288 288 288 288 287 286 286 286 285 285 285 285 285 285 286 286 286 287 287 287 288 288 288 289 289 289 289 289 289 289 289 289 289 289 289
288 288 288 288 288 288 288 288 288 288 288 288 287 287 287 287 288 287 288 287 287 288 288 288 288 288 287 287 287 287 287 287 287 287 287 287 287 287 287 287 287 287 288 288 288 288 288 288 288 288 288 288 288 288 288 288 287 287 286 286 285 285 285 285 285 285 286 286 287 287 287 288 288 288 289 289 289 289 289 289 289 289 289 289 289 289
288 288 288 288 288 288 288 288 288 288 288 288 287 287 287 288 287 287 287 287 287 287 287 288 287 287 287 287 287 287 287 287 287 287 287 287 287 287 287 287 287 287 287 288 288 288 288 288 288 288 288 288 288 289 289 289 288 287 286 285 285 285 285 285 285 285 286 286 286 287 287 288 288 288 288 289 289 289 289 289 289 289 289 289 289 289
288 288 288 288 288 288 288 288 288 288 288 288 288 287 288 288 288 288 287 287 287 287 287 287 287 287 287 286 286 286 286 287 287 287 287 287 287 287 287 287 287 287 287 287 288 288 288 288 288 288 288 288 288 289 289 289 288 287 286 285 285 285 285 285 285 285 286 286 286 287 287 288 288 288 288 288 289 289 289 289 289 289 289 289 289 289
288 288 288 288 288 288 288 288 288 288 288 287 287 287 288 288 288 288 287 287 287 287 287 287 287 287 287 286 286 286 286 286 287 287 287 287 287 287 287 287 287 287 287 288 288 288 288 288 288 288 288 288 288 288 288 288 287 286 286 285 285 285 285 285 285 285 286 286 286 287 287 288 288 288 288 289 289 289 289 289 289 289 289 289 289 289
288 288 288 288 288 288 288 288 288 288 288 288 288 288 288 288 288 288 288 287 287 287 287 287 287 287 287 286 286 286 286 286 286 286 287 287 287 287 287 287 287 287 288 288 288 288 289 289 289 288 288 288 288 288 288 287 287 286 285 285 285 285 285 285 285 285 286 286 286 287 287 288 288 288 288 289 289 289 289 289 289 289 289 289 289 289
288 288 288 288 288 288 288 288 288 288 288 288 288 288 288 288 288 288 288 287 287 287 287 287 287 287 286 286 286 286 286 286 286 286 286 286 287 287 287 287 288 288 288 289 289 290 290 289 289 289 289 288 288 288 288 287 286 286 285 285 285 285 285 285 285 285 286 286 286 287 287 287 288 288 289 289 289 289 289 289 289 289 289 289 289 288
288 288 288 288 289 289 288 288 288 288 288 288 288 288 288 288 288 288 288 288 287 287 287 287 287 287 286 286 286 286 286 286 285 285 286 286 286 287 287 288 288 289 289 290 290 290 290 290 290 289 289 289 288 288 288 287 287 286 285 285 285 285 285 285 285 285 286 286 286 287 287 287 288 288 289 289 289 289 289 289 289 289 289 288 288 288
288 288 289 289 289 289 289 289 289 289 288 288 288 288 288 288 288 288 288 288 288 288 288 288 287 287 287 286 286 286 286 286 286 285 285 286 286 287 288 288 289 289 290 290 290 290 290 290 290 290 289 289 289 288 288 288 287 286 286 285 285 285 285 285 285 285 286 286 286 287 287 287 288 288 288 289 289 289 289 289 288 288 288 288 288 288
288 288 288 289 289 289 289 289 289 289 288 288 288 288 288 288 288 288 288 288 288 288 288 288 288 288 288 287 287 287 287 287 286 286 286 286 286 287 288 288 289 289 289 290 290 290 290 290 290 290 290 289 289 288 288 288 287 287 286 286 285 285 285 285 285 285 285 286 286 287 287 287 287 288 288 289 289 289 289 289 288 288 288 288 288 288
288 288 288 288 288 288 288 288 288 288 288 288 288 288 288 288 288 288 288 288 288 288 289 289 289 289 289 289 288 288 288 288 287 287 286 287 287 288 288 289 289 289 289 289 290 290 290 290 290 290 290 289 288 288 288 287 287 286 286 286 285 285 285 285 285 285 285 286 286 286 287 287 287 288 288 288 288 289 289 288 288 287 287 287 287 287
Wind_Speed
18 16 16 18 20 22 24 26 27 27 27 26 26 26 25 24 21 19 18 17 17 17 18 19 19 19 18 18 17 16 16 15 15 14 13 13 12 11 11 10 10 11 12 12 12 13 13 13 13 13 13 14 15 16 17 18 19 20 21 22 23 24 24 25 25 24 23 22 20 19 19 17 16 14 14 14 13 13 13 13 13 14 14 14 13 12
17 16 17 19 21 23 25 26 27 26 26 26 25 25 23 21 19 17 17 17 16 17 17 18 18 18 18 18 17 16 16 15 14 14 13 12 12 11 11 11 11 11 12 12 12 12 12 13 13 13 13 13 14 14 15 15 16 17 19 20 21 22 22 22 22 21 20 19 19 18 18 17 16 15 15 14 14 14 14 14 15 15 15 15 14 12
18 18 19 21 22 24 25 26 26 25 25 24 24 22 20 18 17 16 16 16 16 16 16 17 18 18 18 17 17 16 15 15 14 13 12 12 11 11 11 11 11 12 12 12 13 13 13 13 13 14 14 14 14 15 15 15 16 16 17 18 18 19 19 19 19 19 19 19 18 18 18 17 16 15 15 14 15 15 15 15 15 15 15 15 14 12
19 20 21 22 23 24 24 24 24 24 23 23 21 20 18 17 16 15 15 15 15 15 16 16 17 17 18 17 16 16 15 15 14 13 12 12 11 11 11 11 12 13 13 13 14 14 14 14 15 15 15 16 16 16 16 17 17 17 18 18 18 18 18 18 19 19 19 19 18 18 17 16 16 15 14 14 14 14 15 15 15 15 15 14 14 12
20 20 21 22 22 22 22 21 21 21 21 21 20 18 17 17 16 15 14 14 14 14 15 16 17 17 17 16 16 15 15 14 14 13 12 12 12 12 12 13 14 14 15 15 15 15 16 16 16 16 17 17 17 17 18 18 18 18 18 18 18 18 18 18 19 19 18 18 17 17 16 15 15 14 13 13 13 13 14 14 14 14 14 14 13 13
20 20 21 20 19 19 19 19 19 19 20 19 19 18 17 17 16 15 15 14 14 14 14 16 16 17 16 15 15 15 15 14 13 12 12 12 12 13 14 14 15 16 16 17 17 17 17 17 16 17 17 17 17 17 17 18 18 18 18 18 18 18 18 18 18 18 17 16 16 15 14 14 13 13 12 12 12 12 13 13 13 13 13 13 13 12
21 21 21 19 17 16 16 17 17 18 19 19 19 18 18 17 16 15 15 14 14 14 15 16 16 16 15 15 15 14 14 13 13 12 12 13 13 14 15 16 17 17 18 18 17 17 17 16 16 16 16 16 16 16 16 16 16 16 16 16 16 16 16 17 16 16 15 14 14 13 13 12 12 12 11 11 11 11 12 12 12 12 12 12 12 12
21 21 20 18 16 15 15 15 16 17 18 19 19 18 17 16 16 15 15 15 15 15 15 15 15 15 15 14 14 14 14 13 13 13 13 13 14 15 16 17 18 18 18 17 17 16 16 15 15 14 14 14 14 14 14 14 14 14 14 14 15 15 15 14 14 14 13 13 12 12 11 11 11 11 11 10 10 10 11 11 11 11 12 12 12 12
21 20 19 18 16 14 14 15 16 17 17 18 18 18 17 17 16 16 16 16 16 16 15 15 15 15 15 14 14 14 13 13 13 13 13 14 15 16 17 18 18 18 17 16 16 15 14 14 13 13 12 12 12 12 12 12 12 12 12 13 13 13 12 12 12 11 11 11 11 10 10 10 10 10 10 10 10 10 10 10 10 11 11 12 12 12
21 19 18 17 16 14 14 15 16 16 17 18 18 18 18 17 17 17 16 17 16 16 14 14 14 14 14 14 14 13 13 13 13 14 14 15 16 17 18 18 17 17 16 15 14 14 14 13 13 12 11 11 11 10 10 10 10 11 11 11 11 11 10 10 10 10 10 10 10 9 9 9 9 9 9 9 9 9 9 10 10 10 11 11 12 12
21 20 18 17 16 16 15 15 16 16 17 18 18 19 19 19 18 17 17 17 16 15 14 13 14 14 14 14 14 14 13 13 14 14 15 16 17 17 17 17 16 15 14 14 13 13 13 13 12 11 11 10 10 9 9 9 9 10 10 9 9 9 9 9 9 9 9 9 9 9 9 8 8 8 9 9 9 9 9 9 10 10 11 11 11 11
21 21 19 18 17 17 16 16 17 17 18 19 19 20 20 20 19 17 16 16 15 14 13 13 13 14 14 14 14 14 14 14 14 15 16 16 16 16 16 15 14 14 13 13 13 13 13 12 12 11 10 9 9 9 8 9 9 9 9 9 8 8 8 8 8 8 8 8 8 8 8 8 8 8 8 8 8 8 9 9 9 10 10 11 11 11
22 22 21 20 19 18 18 18 18 19 20 20 21 20 20 19 18 16 15 15 14 13 12 13 13 14 14 14 14 14 14 14 15 16 16 16 15 15 14 13 13 13 12 12 12 12 12 12 11 10 9 9 8 8 8 8 8 8 8 8 8 8 8 7 7 7 7 7 7 7 7 7 7 7 7 7 8 8 8 8 9 9 10 10 11 11
23 22 22 21 21 20 20 19 19 20 21 21 20 19 18 17 16 15 14 14 13 13 13 13 14 14 15 15 15 15 15 15 15 15 15 15 14 14 13 13 12 12 12 12 12 12 12 11 11 10 9 9 8 8 8 8 8 8 8 8 8 7 7 7 6 6 6 6 6 6 6 6 6 6 6 7 7 7 7 7 8 8 9 9 10 11
22 22 22 22 22 22 21 20 20 20 20 19 18 17 16 16 15 14 13 13 13 13 13 14 15 15 15 15 15 15 15 15 15 15 14 14 13 13 12 12 12 12 12 12 12 11 11 11 10 10 9 9 8 8 8 8 8 8 8 8 7 7 6 6 6 6 6 6 6 5 5 5 6 6 6 6 6 6 6 6 7 7 8 8 9 10
19 19 20 21 22 21 21 20 19 19 18 17 16 15 15 14 14 13 13 13 13 14 14 14 14 15 15 15 15 14 14 14 14 14 13 13 12 12 12 12 11 11 11 11 11 11 10 10 10 9 9 9 8 8 8 8 8 8 8 8 7 6 5 5 5 5 5 5 5 5 5 5 5 5 5 6 6 6 6 6 6 6 7 7 8 9
15 16 16 17 18 18 17 17 17 17 16 15 15 14 14 13 13 13 12 13 13 14 14 14 14 14 14 14 14 14 14 13 13 13 13 12 12 11 11 11 11 11 10 10 10 10 10 10 9 9 9 9 8 8 8 8 8 8 8 7 6 6 5 5 5 5 5 5 5 5 5 5 5 5 5 5 6 6 6 5 6 6 6 6 7 7
13 13 14 14 14 14 13 14 14 15 14 14 13 13 13 12 12 12 13 13 14 14 14 15 15 14 14 13 13 13 13 13 13 13 12 12 11 11 11 11 11 10 10 10 10 9 9 9 9 9 9 9 8 8 8 8 8 8 7 7 6 5 5 4 4 5 5 5 5 5 5 5 5 5 6 6 6 6 6 6 6 6 6 6 6 6
12 12 12 11 11 11 11 12 12 13 13 12 12 12 12 12 13 13 13 14 14 14 14 14 14 14 14 13 12 13 13 13 13 13 12 11 11 10 11 11 11 10 10 9 9 9 9 9 9 9 8 8 8 8 7 7 7 7 7 6 6 5 5 5 5 5 5 5 5 5 5 5 6 6 6 6 6 6 6 6 6 6 6 6 6 6
11 10 10 9 9 9 10 11 11 11 11 11 11 12 12 12 13 13 13 14 14 14 14 14 14 14 13 13 12 12 13 13 13 12 11 11 10 10 10 10 10 10 9 9 9 9 9 9 9 8 8 8 7 7 7 7 7 7 7 6 6 5 5 5 5 5 5 5 6 6 6 6 6 6 6 6 6 6 6 6 6 6 6 6 6 6
10 9 9 8 9 9 10 10 10 10 11 11 12 12 12 13 13 13 13 14 14 14 14 13 13 13 13 12 12 12 13 12 12 11 10 10 9 9 10 10 10 10 9 9 9 9 9 9 8 8 7 7 7 7 7 7 7 7 7 6 6 5 5 5 5 6 6 6 6 6 6 6 6 6 6 6 7 7 7 7 6 6 6 6 6 6
9 9 9 9 10 10 10 11 11 11 12 12 12 12 12 12 13 13 13 13 13 13 13 13 13 13 13 12 12 12 11 11 11 10 9 9 8 9 9 9 9 9 9 9 8 9 9 8 8 7 7 7 7 7 7 7 7 7 7 6 6 6 6 6 6 6 6 7 7 7 7 7 7 7 7 7 7 7 7 7 7 7 7 6 6 6
9 9 10 10 10 10 11 11 12 12 12 12 12 12 12 12 12 12 12 12 12 12 12 12 12 12 12 11 11 11 10 10 9 9 8 8 8 8 8 9 9 9 9 8 8 9 9 8 8 7 7 7 7 7 7 7 7 7 7 7 6 6 7 7 7 7 7 7 7 7 7 7 7 7 7 7 7 7 7 7 7 7 7 7 7 7
9 10 10 10 10 10 11 11 12 12 12 12 12 12 12 12 12 12 12 12 12 12 12 12 12 11 11 11 10 10 9 8 8 8 8 7 8 8 8 8 9 9 9 8 8 8 8 8 7 7 7 7 7 7 7 7 7 7 7 7 7 7 7 7 8 8 8 8 8 8 8 8 8 8 8 7 7 7 7 7 8 8 8 8 8 7
9 10 10 10 10 11 11 11 12 12 12 12 12 12 12 12 12 12 11 11 11 11 11 11 11 11 10 10 10 9 8 8 7 7 7 7 7 7 8 8 8 9 9 8 8 8 8 8 7 7 7 7 7 7 8 8 8 8 8 8 8 8 8 8 8 9 9 9 9 9 9 9 8 8 8 8 8 8 8 8 8 8 8 8 8 8
10 10 10 10 11 11 11 11 12 12 12 11 11 11 11 11 11 11 11 11 11 11 11 11 10 10 10 9 9 9 8 7 7 7 7 7 7 7 7 8 8 9 8 8 8 8 8 8 7 7 7 7 7 8 8 8 8 8 8 8 8 9 9 9 9 9 9 9 9 9 9 9 9 9 9 9 9 9 9 9 9 9 9 9 9 9
10 10 10 10 10 10 11 11 11 11 11 11 10 10 10 10 10 10 11 11 11 10 10 10 10 10 9 9 9 8 8 7 7 7 7 7 7 7 7 8 8 8 8 8 8 8 8 8 8 7 8 8 8 8 8 9 9 9 9 9 9 10 10 10 10 10 10 10 10 10 10 10 10 10 10 10 10 9 9 9 9 9 9 9 9 9
10 10 10 10 10 10 10 10 10 10 10 10 10 10 10 10 10 10 10 10 10 10 10 10 9 9 9 9 8 8 7 7 7 7 7 7 7 7 7 8 8 8 8 8 8 9 8 8 8 8 8 8 9 9 9 9 9 10 10 10 10 10 11 11 11 11 11 11 11 11 11 11 10 10 10 10 10 10 10 10 10 10 10 10 10 9
9 9 9 9 9 9 9 9 10 10 10 10 10 10 10 10 10 10 10 10 10 10 10 9 9 9 9 8 8 8 8 8 7 7 7 7 7 7 8 8 8 8 8 8 8 9 9 8 8 9 9 9 9 9 10 10 10 10 11 11 11 11 11 11 11 11 11 11 11 11 11 11 11 11 11 10 10 10 10 10 11 11 11 11 10 10
8 8 8 8 8 9 9 9 9 10 10 10 10 10 10 10 10 10 10 10 10 10 9 9 9 9 9 8 8 9 8 8 7 7 7 8 8 8 8 8 8 8 8 8 8 9 9 9 9 9 9 10 10 10 10 11 11 11 11 12 12 12 12 12 12 12 12 12 12 12 12 12 12 11 11 11 11 11 11 11 11 11 11 11 11 10
8 8 8 8 8 9 9 9 10 10 10 10 9 9 9 10 10 10 10 10 9 9 9 9 9 9 9 9 9 9 9 8 8 8 8 8 8 8 8 8 8 8 8 8 8 8 8 9 9 9 9 10 10 10 11 11 11 12 12 12 13 13 13 13 13 13 13 13 13 13 13 13 12 12 12 11 11 11 11 11 11 12 12 11 11 10
8 8 8 9 9 9 9 9 10 10 10 9 9 9 9 10 10 10 10 9 9 9 9 9 9 9 9 9 9 9 9 8 8 8 8 8 8 8 8 8 8 8 8 8 9 9 8 9 9 9 9 10 10 10 11 11 12 12 12 13 13 14 14 14 14 14 14 14 14 14 14 13 13 13 12 12 12 12 12 12 12 12 12 12 11 11
8 8 9 9 9 9 9 9 10 9 9 9 9 9 10 10 10 10 9 9 9 9 9 9 9 9 9 9 9 9 9 8 8 8 8 9 8 8 8 8 8 8 8 9 9 9 10 10 10 10 10 10 10 11 11 12 12 12 13 13 14 14 14 14 15 15 16 16 15 15 15 14 14 14 13 13 13 13 12 12 12 12 12 12 12 11
8 8 9 9 9 9 9 9 9 9 9 9 9 9 10 10 9 9 9 9 9 9 9 9 9 8 9 9 9 9 9 9 8 8 8 9 9 9 8 8 8 8 9 9 10 10 11 11 11 12 11 11 11 11 12 12 12 13 13 14 14 15 15 16 16 16 17 17 17 16 16 15 15 14 14 14 14 13 13 13 13 13 13 12 12 11
8 9 9 9 9 9 9 9 9 9 8 8 8 9 9 9 9 9 9 9 9 9 9 9 9 8 8 8 9 9 9 9 8 8 8 9 9 9 9 9 9 9 9 9 10 10 11 11 12 12 12 12 12 12 12 12 13 14 14 15 15 16 16 17 17 18 18 18 18 17 16 16 15 15 15 15 14 14 14 13 13 13 13 13 12 12
9 9 9 9 9 9 9 8 8 8 8 7 7 8 8 8 9 9 9 9 9 9 9 9 9 8 8 9 9 9 9 9 9 9 9 9 9 10 10 10 9 9 10 10 10 10 11 11 12 12 12 12 12 12 12 13 13 14 15 16 16 17 17 18 18 19 19 19 18 18 17 16 16 16 15 15 15 14 14 14 14 13 13 13 13 12
9 9 9 9 8 8 8 8 8 7 7 6 6 7 7 7 8 8 9 9 9 9 9 8 8 8 8 9 9 10 10 10 9 9 9 9 10 10 10 10 10 10 10 10 11 11 11 12 12 12 12 12 12 12 13 13 14 15 16 17 18 18 18 19 19 19 19 19 19 18 17 17 16 16 16 16 15 15 15 14 14 14 14 13 13 13
9 9 8 8 8 7 7 7 7 6 6 6 6 6 6 7 7 7 8 8 8 8 8 8 8 8 8 8 9 10 10 10 10 10 10 10 10 10 11 11 11 11 11 11 11 12 12 12 12 12 12 12 12 12 12 13 15 16 17 18 18 19 19 20 20 20 20 20 19 18 17 17 16 16 16 16 16 15 15 15 15 14 14 14 14 13
8 8 7 7 7 7 6 6 6 6 6 6 6 6 6 6 6 6 6 6 7 7 7 7 7 7 8 8 9 9 10 10 10 10 10 10 10 11 11 11 11 11 11 12 12 12 12 12 12 12 12 12 12 12 12 13 14 15 16 17 18 19 19 20 21 21 21 20 19 18 18 17 17 16 16 16 16 15 15 15 15 15 14 14 14 14
8 7 7 7 6 6 6 6 6 6 6 6 6 5 6 6 6 6 6 6 6 6 6 7 7 7 7 8 8 9 10 10 10 11 11 11 11 11 11 12 12 12 12 12 12 12 12 12 13 13 13 13 13 13 13 13 13 14 15 16 17 17 18 20 21 21 21 20 19 19 18 18 17 17 17 16 16 16 15 15 15 15 15 15 14 14
7 7 7 7 6 6 6 6 6 6 6 6 6 6 6 6 6 6 6 7 7 7 7 7 8 8 8 8 8 9 9 10 11 11 11 11 11 11 11 12 12 12 12 12 12 12 12 12 13 13 13 13 14 14 14 14 14 14 15 15 15 16 17 19 20 20 20 20 20 19 19 18 18 17 17 16 16 16 16 16 16 16 16 15 15 14
8 7 7 7 7 7 6 6 6 6 6 5 6 6 6 6 6 7 7 7 8 8 8 8 8 8 8 8 9 9 10 11 11 11 12 12 12 12 12 12 12 12 12 13 13 12 12 12 13 13 13 14 14 15 15 15 14 14 14 14 15 16 17 17 18 19 19 19 20 20 19 19 19 18 17 17 16 16 16 16 16 16 16 16 15 15
8 7 7 7 7 6 6 6 5 5 5 5 5 5 5 5 6 6 7 7 7 8 8 8 8 9 9 9 9 10 10 11 11 12 12 12 12 12 12 12 12 12 12 13 13 13 13 13 13 13 14 14 15 15 16 15 15 14 14 14 14 15 15 16 17 18 18 19 19 20 20 20 19 19 18 17 17 17 17 17 17 17 17 16 16 15
8 7 7 6 6 6 5 5 4 4 4 4 4 5 5 5 5 6 6 7 7 8 8 8 8 9 9 9 9 10 11 11 12 12 12 12 12 12 12 13 13 13 13 13 13 13 13 13 13 14 14 15 15 16 16 16 16 14 14 14 14 14 15 15 16 17 17 18 19 20 20 20 20 19 19 18 17 17 17 17 17 17 17 17 16 16
7 7 6 6 5 5 4 4 4 3 4 4 4 5 5 5 6 6 6 7 8 8 8 8 9 9 9 9 9 10 11 12 12 12 12 12 12 12 12 13 13 13 13 13 13 13 14 14 14 14 15 16 16 17 17 17 16 15 14 14 14 14 15 16 16 16 17 18 19 20 20 21 20 20 19 18 18 18 18 18 18 18 17 17 17 16
7 6 6 5 5 5 4 4 4 4 4 4 5 5 6 6 6 6 7 7 8 8 9 9 9 9 9 9 10 10 11 12 12 12 12 12 12 12 12 12 12 12 12 13 13 13 13 14 15 15 16 17 17 18 17 17 16 16 15 14 14 14 15 15 15 16 17 18 19 19 20 20 20 19 19 18 18 18 18 18 18 18 18 18 17 17
7 7 6 6 6 5 5 5 5 5 5 5 6 6 6 7 7 7 7 7 8 8 9 9 9 9 10 10 10 10 11 11 12 12 12 12 12 11 11 11 11 12 12 12 12 13 13 14 15 16 17 18 18 18 17 17 16 15 15 15 15 15 14 14 14 15 17 17 18 19 19 19 19 19 19 18 18 18 18 18 18 18 19 18 18 18
8 7 7 7 7 6 6 6 6 6 6 6 6 7 7 7 7 7 7 7 8 8 8 9 9 9 9 9 9 10 10 10 11 11 12 12 12 11 11 11 11 11 12 12 13 14 14 15 16 17 17 18 19 19 18 17 16 15 15 15 15 15 14 14 14 15 16 17 17 18 18 18 18 18 18 18 18 17 17 18 18 18 19 19 19 18
9 9 8 8 7 7 7 7 6 6 6 7 7 8 8 8 8 8 8 8 8 8 8 8 8 9 9 9 9 9 9 10 10 10 11 11 11 11 12 12 12 12 13 14 15 15 16 17 17 18 18 18 18 19 18 18 17 16 16 15 15 15 14 14 14 15 16 16 17 17 17 18 18 18 18 18 17 17 17 17 18 18 18 19 19 18
10 9 9 9 8 8 7 7 7 7 7 8 8 9 9 9 8 8 8 8 8 8 8 8 8 9 9 9 9 9 9 9 9 10 10 11 11 12 12 12 13 13 14 15 16 17 18 18 19 19 19 18 18 18 18 18 18 17 17 16 15 14 14 14 15 16 16 16 17 17 17 17 17 17 17 17 17 17 17 17 17 17 18 19 19 19
11 10 10 9 9 9 8 8 8 8 9 9 9 9 10 10 9 9 9 9 9 9 9 9 9 9 9 9 9 9 9 9 9 10 10 11 11 12 12 13 13 14 15 16 17 18 18 19 20 20 19 18 17 16 16 17 17 17 17 16 15 14 14 14 15 16 16 16 16 16 16 16 16 16 16 16 17 17 16 16 16 17 18 18 19 19
Wind_Direction
263 267 271 272 273 274 274 274 271 268 263 260 256 254 252 251 250 249 249 252 257 265 271 275 278 280 282 284 284 282 279 274 269 265 263 262 261 261 260 259 258 258 258 259 260 261 262 263 263 264 264 263 262 262 261 261 260 260 261 261 262 263 265 266 268 270 272 274 276 278 279 281 282 282 281 278 275 271 268 265 262 261 261 261 260 256
267 272 273 273 274 275 274 272 269 264 259 255 252 250 249 247 246 246 249 255 261 267 271 274 276 278 280 281 281 279 274 268 263 260 258 258 258 259 259 259 260 260 261 263 264 264 265 266 267 267 267 267 267 266 264 263 261 260 260 259 260 261 262 264 266 268 270 272 274 276 278 280 280 279 277 275 273 270 267 264 262 261 261 261 259 254
271 272 272 272 273 273 272 269 265 261 255 251 247 245 244 241 241 244 251 259 265 269 270 271 273 275 277 278 277 273 268 262 257 255 254 254 255 256 257 258 260 261 263 265 266 267 268 269 270 270 269 269 269 268 268 267 266 264 263 262 262 263 264 265 267 268 270 272 273 275 277 278 278 277 274 272 270 268 266 263 261 260 260 261 259 253
269 269 269 270 271 272 270 267 263 259 253 248 244 242 239 237 238 245 254 262 266 268 268 270 271 272 273 273 271 267 262 257 253 251 251 251 252 254 256 258 260 262 264 266 268 270 271 272 271 271 270 269 269 269 269 268 268 268 267 267 267 268 268 268 269 269 270 271 272 273 275 275 275 274 271 269 266 265 263 262 261 260 261 262 260 253
266 266 267 268 270 271 270 266 261 257 252 246 242 238 235 234 239 249 259 266 268 267 267 269 269 269 270 268 265 261 257 253 251 249 249 251 253 255 258 260 263 265 267 269 271 272 273 273 272 270 269 268 268 267 267 268 268 268 269 269 269 269 269 269 268 268 269 270 271 272 272 272 272 270 268 266 263 262 261 261 261 261 261 261 259 254
265 265 265 267 268 270 268 263 258 253 248 242 237 233 231 234 243 254 263 268 270 269 268 268 268 268 266 263 260 256 253 251 249 249 250 252 255 258 262 265 268 270 272 274 275 275 275 273 272 270 268 267 266 266 265 265 266 266 267 267 267 266 266 266 266 267 268 269 269 269 269 269 268 266 264 262 260 259 258 259 259 259 259 259 258 254
265 264 264 264 265 265 264 260 255 249 242 236 231 228 229 236 246 257 264 269 271 270 269 268 267 265 263 259 255 252 250 248 248 249 252 255 259 263 266 269 272 274 276 277 278 277 276 274 272 270 268 267 266 265 264 264 263 263 263 262 261 261 261 262 263 265 266 267 267 267 267 266 265 264 262 260 258 256 256 256 256 257 256 256 255 253
263 263 262 262 261 260 257 254 251 246 239 232 227 227 232 241 250 258 263 267 269 268 266 265 263 261 258 254 250 248 246 246 247 250 254 258 262 266 269 271 274 276 277 278 278 277 276 275 273 271 269 268 266 265 264 263 261 260 259 257 257 257 258 259 261 263 264 265 265 265 264 263 263 262 260 259 257 255 254 254 254 254 254 253 253 252
260 261 261 261 260 258 254 249 246 243 237 231 229 231 239 247 253 258 261 262 264 264 262 260 258 256 254 250 246 244 244 245 248 252 257 261 265 268 270 272 274 275 276 276 277 277 276 275 274 273 271 270 268 266 264 263 261 260 258 257 256 256 256 258 259 261 262 263 263 263 263 262 262 261 260 259 257 255 253 252 252 252 252 252 252 251
255 255 256 257 257 255 251 246 243 241 235 232 233 237 244 250 255 258 260 261 262 261 258 253 250 249 249 247 244 242 243 246 251 255 260 264 267 269 271 272 272 273 274 275 275 275 275 275 275 274 273 271 269 267 266 264 262 261 259 258 258 257 257 258 259 260 261 262 263 263 263 262 262 261 260 259 257 255 253 251 250 250 251 252 252 252
250 249 248 250 251 250 246 242 240 239 235 234 236 242 248 253 256 259 260 262 263 260 253 247 243 242 243 243 243 244 245 249 254 259 263 266 268 270 271 271 271 271 272 273 274 275 276 276 275 275 274 273 271 270 268 266 265 263 262 261 260 260 260 260 261 261 262 263 263 263 263 263 262 261 260 259 258 256 254 252 250 249 249 250 251 251
249 248 245 243 244 245 243 239 236 235 235 235 237 242 247 253 258 260 260 260 259 255 248 242 239 238 238 240 243 245 248 252 257 261 265 267 269 269 269 270 270 271 272 273 275 275 276 276 276 276 275 274 273 273 272 270 268 266 265 264 263 263 263 262 262 263 263 264 264 264 264 264 263 263 262 261 259 257 255 253 251 249 248 248 248 250
250 249 246 243 241 241 241 239 237 236 236 238 241 245 250 256 259 260 257 254 251 247 242 238 235 235 237 239 242 247 251 255 259 263 265 267 268 267 267 267 268 270 272 273 275 275 276 276 276 276 276 276 276 275 274 273 271 269 268 267 266 265 265 265 265 265 265 265 265 266 266 266 266 266 265 264 263 261 258 255 252 250 248 247 247 247
248 247 245 243 241 240 239 240 240 241 242 245 248 252 256 258 258 255 251 246 242 239 236 234 234 236 239 241 245 249 254 258 262 264 265 265 265 264 263 264 265 267 269 271 272 273 273 274 275 276 277 277 277 277 276 274 273 271 270 269 268 268 268 268 267 267 267 267 268 268 269 270 270 270 270 270 269 266 263 259 256 253 250 248 246 247
248 246 243 241 241 241 241 241 243 246 249 251 253 253 254 253 250 247 243 238 235 234 233 234 236 240 243 246 250 254 258 260 262 264 263 263 262 261 261 262 263 265 267 267 267 268 270 271 272 274 275 276 277 277 276 275 274 273 272 272 272 272 272 271 270 269 269 269 271 272 273 275 276 276 277 277 276 273 270 266 262 258 254 251 248 247
252 249 246 245 244 244 244 243 244 246 248 249 249 248 246 244 242 239 235 232 232 233 234 235 239 244 249 252 256 259 261 262 262 262 261 260 260 261 262 264 265 266 266 265 264 265 266 268 271 272 274 276 276 277 277 276 275 275 275 275 276 276 274 272 269 268 269 271 273 276 278 280 282 282 283 282 282 281 278 275 271 266 261 256 253 251
252 250 249 248 247 245 243 240 240 240 242 242 242 241 241 239 237 234 231 230 231 234 237 240 244 248 252 256 259 262 263 262 261 260 258 258 259 261 263 265 266 266 265 264 263 263 264 266 269 271 274 275 276 277 277 277 277 277 278 278 279 278 276 270 267 267 270 273 277 280 283 285 287 287 288 287 286 285 283 281 278 273 268 264 261 259
246 244 244 243 242 239 234 230 229 231 233 234 234 235 234 233 231 230 229 230 233 236 241 246 249 253 256 256 258 261 263 260 258 258 258 259 260 263 264 265 266 266 264 263 263 263 264 266 268 271 273 275 277 278 278 278 278 278 279 280 281 280 277 273 270 270 273 277 281 284 286 288 289 289 288 288 287 285 284 282 279 276 272 269 268 266
238 237 235 233 230 225 219 217 219 222 225 227 228 228 228 228 228 229 230 233 237 241 246 250 253 256 258 257 257 257 258 257 256 257 258 260 263 264 264 265 265 265 263 263 263 263 265 266 268 270 273 275 277 278 278 277 277 278 279 281 282 282 279 275 273 274 277 279 282 284 286 287 287 287 286 286 284 283 281 279 277 275 273 272 272 272
230 228 223 218 214 209 206 208 211 216 218 220 222 223 224 227 229 231 233 237 241 245 249 252 254 256 256 255 253 252 253 254 255 257 259 261 263 263 263 264 264 264 263 263 263 264 265 266 268 271 273 276 277 277 276 276 276 277 278 280 281 280 278 275 274 275 276 278 279 280 281 282 283 283 284 284 283 282 279 276 274 271 270 270 271 272
219 215 210 207 203 199 198 201 205 207 210 214 218 221 224 227 231 235 238 241 244 247 250 250 251 253 254 252 250 249 250 252 254 256 259 260 260 260 261 262 263 263 263 264 264 265 266 267 269 272 275 277 277 276 275 275 275 276 278 278 278 276 274 273 272 273 274 275 275 276 276 276 276 277 278 280 280 280 279 277 275 273 270 269 268 268
211 206 206 207 204 200 199 201 204 208 213 217 220 223 226 230 234 237 241 242 244 245 246 246 248 251 254 252 250 249 250 251 254 256 258 257 255 255 257 260 262 263 264 265 264 265 266 269 271 275 278 279 278 277 276 276 276 277 277 277 276 273 271 270 270 271 272 272 272 272 272 272 272 272 272 273 274 275 276 277 276 275 274 273 271 269
212 210 211 211 210 209 209 209 212 216 221 222 224 226 229 231 233 235 237 238 239 241 243 246 249 251 251 250 249 249 250 251 253 255 256 255 253 253 256 259 262 263 264 265 265 266 268 270 274 278 280 280 280 279 279 279 279 279 278 276 274 272 270 269 269 269 269 269 270 270 271 271 271 271 270 270 270 270 272 273 275 275 275 274 273 272
219 219 220 220 219 219 220 221 223 225 228 228 227 228 229 230 229 229 231 234 237 239 242 245 246 246 246 246 247 249 250 252 254 254 254 254 253 253 255 258 260 262 263 264 265 267 270 273 277 280 281 281 280 281 281 282 281 281 279 277 275 272 270 269 268 268 267 268 268 269 270 271 272 272 272 271 270 270 270 270 272 273 273 273 272 272
226 227 227 227 227 227 228 228 230 231 231 230 230 229 230 230 230 231 233 234 235 237 239 239 239 240 242 244 247 249 250 252 253 253 253 253 252 252 252 254 256 258 261 263 265 268 271 275 279 280 280 279 280 281 282 282 282 281 279 277 274 272 270 269 268 267 267 267 268 269 271 272 273 274 274 274 273 272 271 271 270 270 271 271 271 270
230 230 230 229 229 229 230 230 231 231 231 230 229 228 229 228 228 228 228 229 231 232 233 234 236 238 241 244 247 248 249 251 251 251 251 251 250 248 248 250 252 254 257 261 264 268 272 275 278 278 277 277 278 279 280 281 280 279 278 275 272 270 268 267 267 266 267 267 269 270 271 273 275 276 277 277 277 276 275 273 272 270 269 269 269 269
229 229 228 227 227 227 228 228 228 228 228 228 227 227 226 225 225 224 224 226 228 230 230 232 234 236 238 241 244 246 247 248 248 248 247 247 245 242 242 245 248 251 255 259 263 267 271 274 275 275 274 274 275 276 277 278 277 277 275 273 270 268 266 266 266 266 266 267 268 270 272 274 275 277 278 278 278 278 277 276 274 272 270 269 268 268
225 224 224 224 224 224 224 224 225 225 225 224 224 224 223 221 220 220 221 224 226 227 228 229 230 232 234 238 242 244 244 246 245 243 241 242 240 238 237 240 244 249 253 258 262 267 270 272 273 273 272 272 272 273 274 274 274 274 272 270 268 266 265 265 264 264 265 266 267 269 272 273 275 276 277 278 278 278 277 277 275 274 272 271 269 268
220 220 220 220 220 220 220 220 220 220 221 221 221 220 220 218 217 218 221 223 224 224 224 226 227 228 230 234 237 239 240 242 241 237 237 238 238 236 236 238 243 247 253 257 261 265 268 270 271 271 271 271 271 271 271 272 272 271 270 268 266 265 264 263 263 263 263 264 266 268 271 273 274 275 276 276 276 276 276 276 275 275 274 273 271 268
216 216 216 215 215 215 216 216 216 216 217 217 217 216 216 216 217 218 219 221 222 223 223 224 224 225 226 228 231 234 236 237 235 234 235 238 238 237 237 240 244 248 252 257 261 263 264 267 269 270 270 271 270 270 270 270 270 269 268 267 265 264 263 262 261 261 262 263 265 267 270 271 273 274 274 274 275 274 274 274 274 274 274 274 272 270
211 211 211 210 210 211 212 212 213 213 214 213 212 212 213 214 215 217 217 218 220 222 223 223 223 223 223 224 226 230 234 233 232 232 234 239 241 240 240 243 246 248 251 256 259 261 262 264 266 267 269 270 270 270 270 269 268 267 267 266 264 262 261 260 259 259 260 262 264 266 269 270 272 273 273 273 273 273 273 273 273 273 273 273 272 271
208 208 208 208 208 208 210 210 211 212 211 210 209 209 211 212 213 214 215 216 218 220 221 223 223 223 224 224 226 228 231 231 231 231 233 238 242 242 242 246 248 248 250 253 257 259 259 261 264 266 267 268 269 270 270 269 268 267 266 265 263 261 259 259 258 259 260 262 264 266 267 269 270 271 271 272 272 272 272 272 272 272 272 272 272 272
207 207 208 207 207 208 209 210 210 210 208 206 206 207 210 212 213 214 215 216 218 219 221 223 224 224 226 227 229 230 230 231 231 232 234 240 243 244 244 247 249 249 249 251 254 257 259 261 264 266 266 268 269 269 269 269 268 267 266 265 262 261 259 259 258 259 260 261 263 265 266 268 269 269 270 271 271 271 272 272 272 272 272 272 272 273
206 207 207 207 208 209 209 210 210 209 208 205 204 205 208 212 215 217 219 220 220 221 222 223 224 226 227 231 233 234 234 234 234 234 236 242 245 247 247 249 250 251 251 251 253 255 259 262 264 265 266 267 268 268 268 268 267 267 265 264 262 260 260 259 259 259 260 262 263 264 265 266 267 267 268 269 270 271 271 271 271 271 272 272 273 273
203 205 206 207 208 210 211 212 212 212 211 209 206 205 207 210 215 218 221 223 224 225 225 226 226 228 230 234 238 241 240 239 238 238 239 243 247 249 250 251 252 254 255 255 255 257 259 261 264 265 266 266 266 267 266 266 265 265 264 263 262 261 260 260 260 261 261 262 262 263 264 264 265 266 267 268 269 270 271 271 271 271 271 272 273 274
200 202 204 206 207 209 211 214 216 217 216 214 212 211 211 213 215 219 222 224 226 227 228 229 230 231 233 237 242 245 246 245 244 242 242 244 247 250 253 253 254 255 258 259 260 261 262 263 264 265 266 266 264 264 265 265 264 263 262 261 261 261 262 262 262 262 263 263 263 263 263 263 263 264 266 267 268 269 269 269 269 269 270 270 272 273
200 201 203 205 207 208 211 214 217 219 221 221 220 219 218 219 220 221 223 225 226 228 230 231 233 235 238 241 245 249 252 252 250 248 246 246 248 251 255 255 255 255 258 261 262 263 263 264 265 264 265 266 264 262 261 262 262 261 261 261 261 262 262 263 264 264 264 264 264 263 263 262 263 264 265 266 267 268 268 268 267 267 268 269 270 271
199 201 201 203 205 207 210 213 217 220 223 225 225 226 226 226 226 225 226 227 229 231 232 233 235 238 241 244 248 251 255 256 255 253 251 250 250 252 256 257 257 256 256 258 260 262 264 266 267 267 265 266 266 264 261 260 259 259 260 262 263 263 263 264 264 264 264 265 264 264 263 262 262 263 264 265 266 266 267 266 266 266 266 267 268 270
198 199 200 201 203 205 208 211 214 218 222 224 226 229 230 232 233 234 235 237 239 240 242 242 242 241 243 245 249 253 256 258 258 257 256 254 253 253 256 258 259 258 257 257 258 260 263 266 269 271 272 272 270 268 265 262 260 259 259 261 262 263 263 264 264 264 264 264 264 264 263 262 262 263 263 264 264 265 265 264 264 264 264 265 266 268
196 196 196 196 198 200 203 206 210 214 219 223 227 232 236 240 244 248 251 254 256 258 258 258 257 254 251 250 252 254 257 259 260 260 260 258 257 256 258 260 261 262 262 261 262 263 265 268 271 273 275 277 277 275 271 269 267 264 262 261 260 260 262 262 263 264 264 265 264 264 263 263 262 262 263 263 264 264 263 263 262 262 262 262 263 264
193 192 191 191 194 196 199 202 206 211 217 223 228 233 238 244 249 254 259 264 266 268 271 271 270 268 266 264 262 262 263 264 265 266 266 266 265 265 264 265 266 267 268 269 269 268 269 271 274 275 277 279 279 279 277 276 274 272 269 266 263 260 260 260 261 263 264 264 264 264 264 263 263 263 263 264 264 263 263 262 261 261 261 261 261 260
190 189 188 189 190 193 197 200 205 210 215 221 228 233 238 245 251 256 260 263 265 268 270 272 273 274 274 273 271 270 269 269 270 270 271 271 272 272 272 271 271 271 272 273 273 273 273 274 275 277 279 280 280 281 281 280 279 278 276 273 269 264 260 259 259 260 261 262 263 263 263 263 264 264 264 264 264 263 262 261 260 260 259 260 260 260
189 187 186 186 189 191 196 201 205 212 219 226 233 239 245 250 256 261 265 268 271 273 275 276 277 278 277 276 274 272 271 270 270 271 272 272 273 273 274 274 273 273 273 274 274 275 275 276 277 278 279 280 281 283 284 284 283 283 281 277 273 269 264 261 259 258 257 258 259 261 262 263 263 264 265 265 265 264 262 260 259 258 258 258 259 259
188 185 184 185 189 193 199 205 212 220 230 239 247 253 257 261 266 270 273 276 278 279 280 280 281 280 278 276 274 272 271 271 271 270 270 271 272 273 273 274 275 275 275 275 276 276 278 279 280 280 281 282 283 285 286 287 288 288 286 281 276 270 265 261 259 258 256 256 257 259 260 261 263 264 265 265 265 263 261 259 258 257 257 257 257 258
188 185 184 186 191 197 205 211 220 230 242 253 261 266 269 273 275 278 281 281 282 282 282 283 282 280 277 275 273 272 272 272 272 271 271 272 273 274 275 277 279 280 281 281 281 281 282 283 284 285 285 285 286 287 289 291 292 291 289 284 278 272 266 262 259 257 255 255 256 258 260 261 263 265 266 265 264 263 261 259 257 256 256 256 256 257
193 192 192 194 199 206 213 219 227 237 247 256 264 270 274 277 279 281 283 283 283 283 284 284 283 281 279 276 274 272 272 273 275 275 276 276 277 278 279 280 282 284 286 286 286 286 287 287 288 289 289 289 289 290 292 294 294 293 290 285 279 273 267 263 260 257 255 255 256 258 260 262 264 266 266 266 264 263 261 259 257 255 255 255 256 256
201 202 204 206 210 214 219 225 231 239 247 254 263 269 274 277 280 282 283 284 284 284 285 285 283 281 279 277 274 272 272 273 275 278 280 281 282 282 283 283 283 284 286 288 289 290 290 290 291 291 292 292 293 294 295 296 295 293 290 284 279 273 268 263 259 257 256 255 256 258 261 263 265 266 267 266 265 263 261 259 257 256 255 255 255 256
206 209 212 215 218 222 226 231 236 243 250 257 264 269 274 277 280 282 283 284 284 284 283 283 281 280 277 275 274 272 271 272 273 276 279 281 282 283 283 284 285 286 287 289 291 292 293 293 293 293 294 295 296 297 298 298 296 293 288 283 278 273 268 262 259 258 257 257 257 259 261 263 265 266 267 266 265 264 262 260 258 257 256 256 256 257
211 214 217 221 225 229 233 238 243 249 254 260 264 269 273 276 278 280 281 282 282 282 281 281 279 278 276 275 274 273 272 272 273 274 276 278 280 281 282 284 286 289 292 293 294 295 296 296 296 296 296 297 297 298 298 298 296 292 288 284 279 275 269 264 260 259 259 259 259 260 261 263 264 265 267 267 267 265 263 261 260 259 258 258 258 258
215 218 221 225 229 234 238 243 248 252 256 260 263 267 271 274 277 279 280 281 282 282 282 281 281 281 280 279 277 276 275 274 274 274 274 275 278 280 282 285 288 291 293 295 296 297 297 297 297 296 296 297 297 297 297 296 294 291 288 285 282 277 272 266 263 261 261 261 261 262 263 264 265 266 267 267 266 265 263 261 261 261 260 260 260 259
220 222 225 229 232 237 241 245 249 252 255 259 262 265 269 272 275 277 279 281 282 284 285 286 286 285 284 282 280 278 276 275 276 276 274 274 276 279 282 285 288 290 292 294 295 296 296 296 296 295 296 296 296 295 293 292 291 290 289 287 284 280 274 268 265 264 264 264 264 265 265 266 267 267 267 267 267 265 263 261 260 259 260 261 261 262